Weather History for Nuiqsut, AK

Change the Weather History Date:

Wednesday, May 9, 2012

  Actual Average (PAKU) Record (PAKU)
Temperature  
Mean Temperature 17 °F -  
Max Temperature 19 °F 21 °F 37 °F (2002)
Min Temperature 12 °F 11 °F -11 °F (2000)
Degree Days  
Heating Degree Days 48    
Moisture  
Dew Point 15 °F    
Average Humidity 94    
Maximum Humidity 100    
Minimum Humidity 89    
Precipitation  
Precipitation 0.00 in - - ()
Sea Level Pressure  
Sea Level Pressure 29.75 in    
Wind  
Wind Speed 11 mph (East)    
Max Wind Speed 13 mph    
Max Gust Speed -    
Visibility 6 miles    
Events Rain    
Averages and records for this station are not official NWS values.
T = Trace of Precipitation, MM = Missing Value Source: NWS Daily Summary

Daily Weather History Graph

Daily Weather History Graph

Search for Another Location

Airport:

Trip Planner

Search our weather history database for the weather conditions in past years. The results will help you decide how hot, cold, wet, or windy it might be!

Date:

Astronomy

May. 09, 2012 Rise Set
Actual Time 3:30 AM AKDT 12:37 AM AKDT
Civil Twilight Sun does not rise Sun does not rise
Nautical Twilight Sun does not rise Sun does not rise
Astronomical Twilight Sun does not rise Sun does not rise
Moon No Moon Rise No Moon Set
Length of Visible Light 24h 00m
Length of Day
21h 06m
Waning Gibbous, 81% of the Moon is Illuminated
May 9
Waning Gibbous
May 12
Last Quarter
May 20
New
May 28
First Quarter
Jun 4
Full

Hourly Weather History & Observations

Time (AKDT) Temp. Windchill Dew Point Humidity Pressure Visibility Wind Dir Wind Speed Gust Speed Precip Events Conditions
12:53 AM 16.0 °F 2.3 °F 15.1 °F 96% 29.85 in 5.0 mi East 12.7 mph - N/A   Overcast
1:22 AM 15.8 °F 2.7 °F 15.8 °F 100% 29.83 in 5.0 mi East 11.5 mph - N/A   Overcast
1:48 AM 15.8 °F 3.4 °F 15.8 °F 100% 29.83 in 3.0 mi ENE 10.4 mph - N/A Rain Light Freezing Rain
1:53 AM 15.1 °F 1.8 °F 15.1 °F 100% 29.83 in 2.5 mi ENE 11.5 mph - N/A Rain Light Freezing Rain
2:53 AM 15.1 °F 3.3 °F 15.1 °F 100% 29.82 in 2.5 mi ENE 9.2 mph - N/A Rain Light Freezing Rain
3:11 AM 15.8 °F 3.4 °F 15.8 °F 100% 29.81 in 1.8 mi ENE 10.4 mph - N/A Rain Light Freezing Rain
3:53 AM 16.0 °F 3.6 °F 15.1 °F 96% 29.80 in 1.2 mi East 10.4 mph - N/A Rain Light Freezing Rain
4:44 AM 15.8 °F 3.4 °F 14.0 °F 93% 29.79 in 0.8 mi East 10.4 mph - N/A Rain Light Freezing Rain
4:53 AM 15.1 °F 1.8 °F 14.0 °F 95% 29.79 in 0.8 mi East 11.5 mph - N/A Rain Light Freezing Rain
5:05 AM 15.8 °F 2.7 °F 14.0 °F 93% 29.78 in 0.8 mi East 11.5 mph - N/A   Overcast
5:16 AM 15.8 °F 2.7 °F 14.0 °F 93% 29.78 in 0.8 mi East 11.5 mph - N/A Rain Light Freezing Rain
5:39 AM 15.8 °F 2.7 °F 14.0 °F 93% 29.77 in 1.0 mi East 11.5 mph - N/A Rain Light Freezing Rain
5:53 AM 15.1 °F 2.5 °F 14.0 °F 95% 29.78 in 1.0 mi East 10.4 mph - N/A Rain Light Freezing Rain
6:53 AM 15.1 °F 1.8 °F 14.0 °F 95% 29.77 in 1.8 mi East 11.5 mph - N/A   Overcast
7:00 AM 15.8 °F 2.7 °F 14.0 °F 93% 29.76 in 2.0 mi East 11.5 mph - N/A   Overcast
7:22 AM 15.8 °F 2.7 °F 14.0 °F 93% 29.76 in 4.0 mi East 11.5 mph - N/A   Overcast
7:53 AM 15.1 °F 1.1 °F 14.0 °F 95% 29.76 in 5.0 mi East 12.7 mph - N/A   Overcast
8:53 AM 15.1 °F 2.5 °F 14.0 °F 95% 29.75 in 8.0 mi East 10.4 mph - N/A   Overcast
9:45 AM 15.8 °F 2.7 °F 14.0 °F 93% 29.74 in 10.0 mi East 11.5 mph - N/A   Overcast
9:53 AM 16.0 °F 3.6 °F 14.0 °F 92% 29.75 in 10.0 mi East 10.4 mph - N/A   Overcast
10:53 AM 16.0 °F 5.3 °F 15.1 °F 96% 29.75 in 10.0 mi East 8.1 mph - N/A   Overcast
11:53 AM 17.1 °F 5.0 °F 15.1 °F 92% 29.74 in 8.0 mi East 10.4 mph - N/A   Overcast
12:53 PM 18.0 °F 6.1 °F 16.0 °F 92% 29.73 in 10.0 mi East 10.4 mph - N/A   Overcast
1:53 PM 19.0 °F 8.2 °F 17.1 °F 92% 29.72 in 10.0 mi East 9.2 mph - N/A   Overcast
2:53 PM 19.0 °F 8.2 °F 17.1 °F 92% 29.72 in 10.0 mi ESE 9.2 mph - N/A   Overcast
3:53 PM 19.0 °F 6.8 °F 17.1 °F 92% 29.71 in 10.0 mi ESE 11.5 mph - N/A   Overcast
4:53 PM 19.0 °F 8.2 °F 17.1 °F 92% 29.70 in 10.0 mi ESE 9.2 mph - N/A   Overcast
5:53 PM 19.9 °F 7.9 °F 17.1 °F 89% 29.69 in 10.0 mi East 11.5 mph - N/A   Overcast
6:36 PM 19.4 °F 7.9 °F 17.6 °F 93% 29.69 in 10.0 mi ESE 10.4 mph - N/A   Overcast
6:53 PM 19.9 °F 9.3 °F 17.1 °F 89% 29.69 in 10.0 mi ESE 9.2 mph - N/A   Overcast
7:53 PM 19.9 °F 9.3 °F 17.1 °F 89% 29.68 in 10.0 mi ESE 9.2 mph - N/A   Overcast
8:15 PM 19.4 °F 9.5 °F 17.6 °F 93% 29.67 in 10.0 mi ESE 8.1 mph - N/A   Scattered Clouds
8:53 PM 18.0 °F 8.7 °F 16.0 °F 92% 29.67 in 10.0 mi ESE 6.9 mph - N/A   Clear
9:53 PM 16.0 °F 6.3 °F 14.0 °F 92% 29.66 in 10.0 mi East 6.9 mph - N/A   Overcast
10:53 PM 16.0 °F 5.3 °F 14.0 °F 92% 29.66 in 10.0 mi East 8.1 mph - N/A   Mostly Cloudy
11:53 PM 12.9 °F 3.8 °F 12.0 °F 96% 29.65 in 10.0 mi East 5.8 mph - N/A   Clear